GFSWCAN_500_rhum_000.txt.gz
RH
99 100 100 100 85 40 23 20 19 21 36 31 28 23 21 20 18 18 16 14 15 18 19 18 18 18 18 18 20 21 22 23 23 23 24 24 24 23 20 23 29 36 46 51 52 63 64 73 61 64 62 62 63 64
92 99 96 88 100 76 42 27 19 19 26 39 32 26 20 18 19 20 20 18 16 16 16 17 17 18 18 19 20 21 20 21 21 22 23 22 22 18 14 15 32 52 56 57 65 73 83 74 71 73 66 65 67 77
94 91 98 100 100 99 64 35 25 19 22 36 40 33 26 22 19 18 18 19 19 18 18 18 17 17 16 16 17 17 18 20 21 22 22 21 19 13 17 32 49 64 63 57 64 83 72 76 77 81 80 85 88 89
80 96 92 98 100 100 97 92 43 23 20 26 41 44 37 32 25 20 18 18 17 17 17 18 18 17 17 17 17 18 19 21 22 23 22 20 16 17 36 51 62 81 66 73 75 84 80 86 86 88 85 84 83 83
100 98 95 100 100 100 100 88 43 30 22 24 35 47 48 43 38 34 28 21 18 19 16 16 16 16 16 18 19 21 22 25 28 27 24 22 22 38 45 51 82 87 84 79 82 79 77 76 80 88 91 92 88 77
89 92 87 95 100 100 100 100 87 80 31 26 27 33 45 54 54 52 48 39 32 24 21 20 21 20 20 21 23 27 31 35 33 28 26 26 33 50 45 52 91 92 90 83 80 77 79 81 83 85 86 78 71 69
99 100 82 87 98 100 100 99 100 100 84 50 38 38 41 44 52 58 50 58 57 51 42 33 27 24 23 24 29 37 43 41 36 31 29 32 48 60 63 78 100 87 86 83 79 82 80 75 81 83 80 76 74 73
99 98 92 94 99 100 100 100 100 100 100 86 54 51 48 49 49 44 48 61 66 65 58 48 39 40 46 46 48 48 42 35 32 37 45 52 58 70 80 100 100 96 90 90 83 81 86 88 88 84 79 78 72 65
68 81 98 100 100 100 100 100 99 98 99 100 92 68 71 52 41 46 59 67 66 60 50 41 43 44 45 49 44 40 48 56 58 60 75 88 86 91 100 100 99 93 94 95 94 93 91 92 86 81 74 67 64 56
14 17 28 71 96 96 95 100 100 100 100 100 100 99 84 83 87 79 90 66 56 58 41 32 33 33 27 30 48 77 82 83 81 83 90 76 68 94 100 99 92 92 96 94 94 92 84 75 71 71 70 62 44 20
6 9 7 19 69 98 100 100 100 100 100 100 99 100 98 100 100 100 100 89 68 59 59 46 46 50 52 51 56 70 84 83 90 83 85 72 71 94 97 95 94 95 96 94 86 77 74 75 73 67 55 31 14 12
5 4 6 6 15 63 97 98 100 100 100 98 99 100 100 100 100 100 100 99 90 82 64 67 82 91 85 87 97 100 100 98 89 79 78 69 77 92 96 95 97 99 92 84 79 76 78 74 63 44 23 12 14 17
9 5 3 3 5 12 69 100 100 100 100 100 100 100 100 100 100 100 95 88 85 72 72 83 90 94 97 100 100 100 100 100 100 89 78 84 97 98 98 100 98 92 83 76 77 77 68 52 31 15 17 20 18 18
13 10 6 3 3 4 14 84 100 100 100 100 100 100 100 100 100 100 99 92 94 99 100 98 98 96 100 100 100 100 100 100 97 94 99 99 97 100 100 94 91 85 77 76 71 58 40 20 14 20 24 22 19 18
14 12 9 7 3 4 4 5 67 100 100 100 100 100 100 100 100 100 100 100 100 100 100 100 100 100 100 100 100 100 100 99 98 100 95 94 93 89 84 84 84 80 75 63 46 28 22 23 22 23 23 22 20 22
10 7 8 9 7 3 5 6 38 99 100 100 100 100 100 100 100 100 100 100 100 100 100 100 100 100 100 100 98 99 100 100 100 94 89 87 87 89 92 87 78 69 52 33 22 24 24 24 25 22 22 23 26 31
7 8 13 11 8 5 7 12 12 72 100 96 100 100 100 100 100 100 100 100 100 100 100 100 100 100 100 100 100 100 100 96 94 93 91 89 95 91 83 73 50 34 29 25 23 27 29 29 26 25 25 27 35 35
62 59 51 30 19 30 68 65 74 50 52 96 100 100 100 100 100 100 100 100 100 100 100 100 99 100 100 100 100 96 92 87 82 84 93 91 82 66 45 36 35 33 27 24 32 32 30 29 27 27 33 38 37 40
88 92 91 73 71 100 100 100 100 100 100 100 99 96 100 99 99 100 100 100 100 100 98 99 100 100 100 97 89 83 86 91 90 88 79 60 41 39 38 36 31 30 28 32 36 34 31 30 29 34 42 42 41 45
100 98 100 100 94 97 100 100 100 100 100 100 100 100 100 100 100 100 100 100 100 98 93 98 100 100 90 85 87 90 82 70 56 44 42 44 45 41 42 42 42 38 38 40 36 33 32 30 33 39 42 49 52 54
100 100 99 81 76 78 77 79 92 97 98 93 93 91 95 95 94 92 88 87 82 83 80 77 75 72 64 58 56 55 55 48 42 42 40 40 46 48 48 49 42 38 35 33 31 28 28 32 39 45 51 62 63 64
97 100 100 100 94 100 98 98 98 88 81 85 81 83 83 85 85 81 78 73 68 64 62 57 56 55 54 54 53 52 50 46 43 41 42 43 43 42 38 36 33 30 30 32 30 30 37 49 57 59 59 64 66 65
97 100 100 100 100 98 100 97 68 68 73 83 85 76 69 61 57 53 49 45 54 59 50 55 60 60 57 54 53 53 48 48 49 51 50 44 40 39 37 34 31 32 35 38 42 53 61 66 65 69 75 74 73 79
100 100 100 100 100 100 99 93 83 72 60 49 41 40 40 36 35 36 42 65 82 77 72 61 53 52 53 57 58 58 59 56 49 44 44 43 39 35 34 33 39 44 46 45 61 73 76 77 83 88 89 90 93 93
100 100 97 96 91 80 71 61 52 45 34 32 28 26 39 61 72 65 59 65 60 59 60 64 71 72 72 67 60 55 52 48 42 38 36 41 42 41 39 41 47 57 60 64 74 82 86 87 96 100 100 99 100 100
100 99 96 90 80 65 54 46 39 39 41 54 61 61 71 74 71 64 66 76 79 80 79 77 68 61 57 54 49 46 46 44 40 36 40 44 43 40 39 44 52 60 75 75 82 90 96 99 100 100 99 100 100 100
95 76 70 68 64 58 54 58 59 50 44 57 73 76 74 66 67 69 67 67 66 65 60 55 50 46 43 43 43 44 45 47 47 48 50 54 54 51 46 54 63 70 76 83 95 97 94 100 100 100 100 98 95 90
80 67 60 58 53 59 61 58 59 64 64 62 60 74 82 87 81 73 66 60 57 52 49 48 47 44 40 41 45 44 42 41 42 47 51 59 70 64 48 54 74 93 100 100 99 97 100 100 100 100 100 100 100 100
72 72 64 60 60 59 58 60 59 58 59 64 80 90 80 68 58 54 55 57 59 59 53 51 52 54 46 34 32 34 37 35 36 43 41 43 70 70 60 72 99 100 100 100 100 99 100 100 100 98 99 100 95 89
67 69 74 74 78 81 79 69 66 67 71 72 73 73 73 68 65 65 63 59 59 63 60 52 40 36 36 38 41 35 28 17 17 42 49 45 56 74 65 78 100 100 100 100 100 100 100 100 100 100 100 96 88 62
84 85 86 82 80 84 79 77 79 81 80 73 71 69 63 56 55 58 61 60 55 46 40 37 35 35 35 37 36 34 32 26 25 40 46 44 47 78 79 81 94 100 100 100 100 100 100 100 100 99 98 95 79 57
86 88 90 91 90 87 76 67 60 57 55 56 57 57 58 62 62 55 46 41 40 38 38 36 35 36 38 39 37 34 36 38 32 36 44 46 48 75 95 99 100 100 100 100 100 100 100 96 94 92 88 80 65 59
52 50 46 44 44 45 48 47 42 44 62 70 69 68 63 55 49 44 42 41 41 40 39 38 38 37 36 36 35 33 32 35 42 45 49 55 59 64 78 96 100 100 100 100 100 100 100 96 96 93 87 79 69 66

GFSWCAN_500_rhum_006.txt.gz
RH
100 100 94 82 74 53 20 23 34 42 47 52 51 46 34 26 26 26 19 14 9 10 10 10 15 14 17 24 22 33 25 16 15 16 17 18 17 18 19 20 21 22 22 23 23 25 22 21 25 29 41 58 54 59
100 100 99 99 90 54 23 22 29 35 44 46 51 49 46 36 29 27 23 20 18 16 18 20 24 28 26 23 20 30 24 20 17 17 17 17 18 19 20 22 23 24 24 22 22 26 26 26 26 30 56 65 71 72
100 100 100 100 72 44 27 22 20 26 37 46 48 50 47 39 36 32 32 25 23 24 26 22 23 30 31 28 25 24 24 19 19 17 19 18 19 21 22 22 25 24 31 25 25 27 29 28 32 44 59 71 81 83
100 100 100 100 78 77 49 27 20 21 29 38 45 47 46 42 37 35 36 34 27 30 26 30 29 28 34 35 31 24 22 22 19 19 19 19 20 21 20 23 20 24 32 33 29 30 29 41 58 71 73 89 89 85
100 100 100 100 99 96 57 31 22 23 26 27 28 30 42 47 41 37 37 34 32 34 31 30 29 34 29 35 36 31 28 26 22 22 22 24 23 26 20 20 21 38 38 37 32 31 40 54 66 72 91 96 90 80
100 100 100 100 100 100 89 79 49 31 28 26 25 23 24 32 45 44 33 30 34 30 30 28 31 31 27 27 26 30 31 30 29 26 25 23 25 26 20 20 23 37 38 36 36 42 57 74 88 87 90 86 79 78
100 100 95 95 100 100 100 100 100 100 95 39 30 23 21 21 22 34 41 48 45 37 28 25 22 27 31 32 31 34 30 30 30 33 23 23 25 26 23 22 43 46 45 44 59 61 57 76 96 91 86 84 82 83
99 100 100 97 100 100 98 98 97 98 99 97 66 45 41 32 25 20 26 48 63 61 43 31 21 24 32 27 29 35 29 35 28 31 28 37 41 45 38 50 51 49 55 61 60 72 88 94 97 93 84 84 81 83
91 86 100 100 100 100 96 85 87 91 90 96 100 95 94 88 53 33 29 38 47 57 55 41 35 35 43 42 59 68 64 62 55 48 53 52 44 37 45 41 39 48 62 63 75 92 99 98 88 81 84 81 82 89
18 49 81 97 99 96 89 77 76 93 98 93 93 87 82 79 58 49 47 40 33 39 22 22 27 35 47 52 58 63 58 52 39 34 44 39 26 29 34 39 49 69 91 97 95 93 90 82 77 78 76 80 88 91
9 4 18 44 58 79 60 57 63 66 81 93 86 86 84 91 100 94 95 96 70 51 45 29 18 19 20 31 45 56 48 53 54 48 48 36 33 55 79 97 100 100 100 97 91 86 82 84 85 82 88 92 99 100
9 11 4 5 11 20 32 21 22 66 97 100 84 88 99 100 100 100 98 91 76 69 59 62 68 63 68 76 85 89 93 97 86 79 78 59 61 59 73 86 83 83 98 100 96 85 92 99 98 98 100 100 100 95
6 8 10 5 12 38 77 29 28 49 78 88 99 100 100 100 100 100 90 63 68 65 59 61 73 86 96 100 100 100 100 99 93 84 71 70 74 81 91 94 86 81 96 98 100 100 100 100 100 100 100 100 91 79
8 8 9 7 5 14 35 71 76 61 62 69 98 100 100 100 98 100 90 72 64 63 68 75 85 100 100 100 100 100 100 99 100 88 83 95 98 99 97 96 94 100 100 100 100 100 99 100 100 100 99 86 61 35
14 10 8 7 6 4 3 5 17 48 65 63 82 100 100 100 100 100 100 100 93 84 86 89 86 100 100 100 100 100 100 100 100 100 100 100 100 100 100 100 100 100 100 100 99 98 98 100 100 95 66 44 30 25
12 12 13 12 9 6 5 3 3 4 14 18 31 70 100 100 100 100 100 100 100 100 100 99 100 99 99 99 100 100 100 100 100 100 100 100 100 100 100 100 100 100 100 99 99 98 97 92 70 45 30 27 26 24
13 12 11 10 10 12 11 8 4 3 2 4 4 7 19 83 100 100 100 100 100 100 100 100 100 100 100 100 100 100 100 100 100 100 100 100 100 100 100 100 100 100 99 99 94 78 53 39 33 31 29 27 26 25
15 14 12 11 10 11 12 12 12 10 5 3 4 8 8 6 15 59 97 100 100 100 100 100 100 100 100 100 100 100 100 100 100 100 100 99 99 99 100 100 100 97 85 60 45 38 34 33 32 32 34 32 27 28
17 16 14 14 14 13 14 15 13 12 11 11 9 5 4 12 29 57 84 100 100 100 100 100 100 100 100 100 100 100 100 100 100 99 100 100 99 96 91 83 66 48 39 36 35 34 34 36 37 36 35 33 28 28
19 19 19 18 16 14 13 12 12 11 11 13 11 11 9 5 6 12 24 52 77 90 89 89 93 92 94 96 96 96 95 94 91 88 82 71 64 58 45 36 35 35 36 37 38 36 38 37 35 33 30 31 35 33
19 20 20 17 13 9 8 5 6 9 10 15 30 40 43 44 57 69 76 75 58 58 63 65 66 69 68 64 69 70 71 71 64 56 47 40 33 32 30 34 38 39 38 36 38 36 34 31 30 30 39 39 38 42
11 10 10 11 11 10 7 16 40 41 34 55 85 87 92 98 99 92 86 77 77 77 70 68 64 60 54 50 46 42 37 35 32 30 31 32 35 39 40 42 41 40 37 34 32 28 26 29 37 44 48 50 46 45
7 7 8 9 11 21 56 89 82 74 71 82 99 100 95 89 84 83 73 67 59 52 46 40 34 29 23 22 24 28 30 32 40 43 44 44 43 43 44 42 41 35 29 26 31 34 37 42 46 51 63 67 53 50
42 46 97 98 100 100 88 92 95 85 78 81 85 92 98 93 72 57 49 50 47 42 36 29 24 23 24 35 54 62 59 55 52 50 51 49 46 44 42 35 32 29 30 33 31 29 31 36 43 53 73 78 60 58
100 100 100 100 99 96 100 100 100 94 60 50 49 62 89 97 81 65 58 54 47 38 29 24 24 33 58 68 67 57 50 52 53 52 56 56 49 41 36 31 33 42 37 30 30 26 22 25 43 52 56 73 67 71
100 100 100 100 98 98 100 100 92 82 92 68 72 94 100 89 75 55 40 34 33 32 30 35 49 60 60 53 52 60 64 62 60 58 54 50 44 36 32 36 34 30 32 31 26 21 14 14 31 44 54 75 79 95
100 99 100 100 100 100 100 100 100 100 100 96 92 79 62 45 35 31 41 35 35 38 44 53 57 60 67 71 71 62 54 49 46 44 44 42 46 47 42 34 30 29 29 29 26 21 17 21 32 46 69 77 92 100
100 100 100 100 100 100 100 98 91 75 58 48 43 41 37 35 38 39 37 38 40 48 56 59 60 62 55 50 46 42 43 42 41 44 52 52 47 41 39 36 34 32 30 28 27 23 20 24 34 50 68 76 90 97
100 100 100 99 96 86 70 55 42 36 34 34 37 42 42 44 43 46 49 50 53 54 54 54 52 52 49 45 39 34 38 45 53 54 49 43 41 41 40 39 37 34 31 29 28 26 24 26 35 47 66 74 86 92
82 73 71 64 52 40 35 34 35 37 41 44 44 48 48 48 54 55 56 62 66 66 62 59 56 54 48 45 46 50 54 57 52 46 42 41 41 41 41 39 36 34 31 28 26 26 26 29 33 42 72 94 96 99
47 42 40 38 38 40 38 39 38 40 46 46 48 50 53 57 56 58 60 59 58 53 46 44 45 49 55 59 60 56 49 44 42 40 39 38 38 36 34 31 28 27 26 26 26 27 29 34 43 51 70 97 100 100
43 40 37 34 32 34 34 37 39 43 43 44 42 40 39 38 40 43 46 46 50 56 60 61 58 56 55 52 46 41 38 36 34 32 30 28 26 24 22 21 20 20 20 22 23 27 32 44 58 71 89 100 100 100
43 44 45 46 50 52 52 50 45 41 38 38 40 48 53 62 72 76 74 71 67 63 58 52 46 41 36 32 30 29 28 27 25 23 20 19 18 18 18 18 19 20 23 24 25 28 37 56 85 100 100 100 100 100

GFSWCAN_500_rhum_009.txt.gz
RH
100 94 93 96 49 21 21 27 38 66 78 76 70 54 41 35 28 14 6 5 4 4 4 4 4 4 4 4 6 11 13 22 36 37 27 16 16 17 16 17 19 19 19 20 21 21 20 19 19 23 26 26 28 41
100 100 82 77 43 35 22 22 26 40 61 70 70 62 52 40 31 28 23 13 7 7 7 6 6 6 5 5 8 16 18 32 33 43 34 21 18 18 18 17 18 18 21 22 23 22 23 23 24 32 28 30 36 45
100 100 96 84 93 74 46 23 26 34 43 53 61 59 53 46 35 30 28 25 21 14 10 8 9 14 22 15 14 23 25 35 34 36 36 28 20 19 18 18 20 20 21 21 22 24 29 46 36 34 32 34 48 51
100 100 100 99 66 84 92 57 31 28 37 43 51 52 49 49 43 35 30 28 27 26 21 18 15 19 21 19 19 32 40 32 30 38 34 30 27 21 19 19 19 25 27 31 25 27 30 34 34 36 40 54 50 55
100 100 100 100 90 77 67 71 32 24 27 34 45 53 55 52 49 46 35 24 27 28 26 26 25 31 31 30 32 36 39 41 38 34 32 33 28 28 20 20 21 35 31 30 25 40 47 41 44 45 62 56 62 82
100 100 100 100 100 99 87 58 47 40 29 23 25 33 46 49 47 45 41 37 30 29 29 27 33 34 33 34 35 35 37 36 38 41 37 31 37 39 23 19 22 28 38 43 68 70 54 50 47 66 71 77 82 92
100 100 99 100 100 91 73 69 60 39 28 20 19 23 28 29 31 36 41 47 47 39 31 28 26 30 41 40 36 44 45 44 39 31 25 31 34 31 21 20 30 52 63 59 51 52 47 45 66 67 72 86 94 94
100 100 96 98 100 99 95 93 84 61 34 25 22 24 25 25 25 23 25 29 36 38 39 27 21 28 36 33 35 42 72 100 94 57 29 32 30 31 20 39 48 49 50 46 37 34 31 38 59 78 81 82 87 82
100 100 99 100 100 100 100 100 99 96 86 71 86 95 56 24 25 24 24 24 24 22 23 27 31 37 46 46 58 68 73 75 58 48 52 51 38 35 46 42 39 38 50 52 52 58 72 85 88 92 95 97 94 92
100 100 100 100 100 100 100 100 100 100 99 100 100 95 91 84 59 47 45 64 62 46 30 20 22 22 35 45 56 68 72 67 55 49 54 42 30 25 44 66 60 62 72 83 80 97 100 93 86 90 100 100 100 100
77 95 100 100 100 100 100 100 100 100 100 100 94 88 96 100 99 96 90 78 64 44 39 37 40 39 33 34 43 57 46 40 30 26 34 21 18 52 67 76 83 87 85 85 100 100 100 97 97 93 95 100 100 100
7 23 75 96 96 99 100 100 100 97 94 81 81 97 100 100 100 100 79 75 75 70 58 59 64 81 86 98 100 99 99 90 82 80 81 63 61 64 66 70 72 77 85 99 100 100 100 100 99 100 100 100 100 100
5 4 4 24 50 76 91 92 100 98 94 80 72 73 91 100 100 92 77 70 59 55 56 64 78 94 96 100 100 100 100 92 84 82 78 71 70 71 75 77 73 74 81 85 87 97 100 100 100 100 100 100 99 100
5 6 7 6 4 13 21 55 60 63 66 53 57 46 65 97 98 95 73 68 59 60 72 76 80 82 88 96 100 100 100 98 95 84 78 86 89 90 82 81 81 79 80 85 100 100 100 100 100 100 100 100 97 90
6 5 5 5 7 7 6 6 7 23 58 49 34 43 50 72 98 98 96 94 87 85 78 73 70 74 80 99 100 100 100 100 100 100 98 96 94 96 90 86 93 98 100 100 100 100 100 100 100 100 100 89 64 42
11 11 8 7 7 7 9 10 8 8 24 45 65 71 63 65 89 100 100 100 99 98 98 100 100 98 98 98 100 100 100 100 100 99 98 99 100 100 100 100 100 100 100 100 100 100 100 99 97 87 56 37 30 30
10 9 10 11 10 8 6 6 6 7 6 6 6 26 40 47 50 75 99 100 100 100 100 100 100 100 100 100 100 100 100 100 100 100 100 100 100 100 100 100 100 100 100 99 99 98 84 70 53 36 30 30 30 29
12 12 11 10 10 9 10 10 10 8 5 4 4 5 8 10 10 9 12 26 63 83 93 98 99 100 100 100 100 100 100 100 100 100 100 100 100 100 100 100 98 94 89 86 74 58 44 34 29 30 30 28 26 26
13 12 12 12 12 11 10 10 9 9 10 10 10 10 8 6 5 5 7 10 16 31 53 92 99 100 100 100 100 100 100 100 100 100 100 99 98 97 95 93 91 85 70 48 33 28 29 30 29 28 28 28 22 23
16 14 14 14 14 14 14 13 13 12 12 11 11 11 11 11 11 10 10 9 6 5 5 11 32 60 81 90 90 93 91 88 87 86 86 82 75 60 45 36 33 31 29 30 33 32 31 29 31 32 28 23 24 29
22 21 20 19 19 18 17 16 16 15 14 12 11 10 10 11 13 16 18 23 19 26 54 36 35 50 58 62 60 57 47 47 38 32 28 28 27 26 24 24 25 29 33 37 36 38 43 38 31 26 25 26 27 26
24 23 22 21 20 19 18 17 16 14 12 10 10 11 11 14 28 44 54 54 84 89 70 70 66 64 56 48 40 34 29 25 21 17 19 26 29 34 40 45 46 45 45 53 50 41 33 29 25 27 27 27 25 24
15 14 14 14 14 13 14 12 12 11 10 10 15 22 30 58 97 98 93 87 82 77 72 62 54 45 39 36 35 29 22 20 23 26 30 46 55 53 49 48 53 57 54 46 42 36 31 29 32 32 28 27 25 19
8 8 8 8 7 9 9 9 11 14 29 56 66 69 81 93 92 93 99 96 76 66 58 53 52 50 42 29 22 21 21 25 40 60 62 54 49 47 55 60 58 53 43 40 35 32 36 40 35 31 29 28 24 17
38 30 20 38 74 63 23 18 20 80 100 100 96 82 82 85 88 87 85 86 84 82 76 62 45 32 26 24 22 23 29 39 52 58 58 55 53 56 58 51 47 44 45 42 42 45 44 37 34 32 31 28 23 18
100 93 100 100 100 100 80 81 100 100 100 100 97 88 71 65 61 54 70 93 86 74 57 40 31 30 29 27 28 32 43 57 62 62 72 66 58 53 49 45 42 44 48 46 46 44 39 37 37 34 31 28 25 21
93 91 100 100 100 100 100 100 100 100 100 100 98 98 95 80 84 92 82 60 44 36 35 34 33 33 33 35 40 49 60 64 63 62 59 55 52 45 38 37 45 50 49 46 42 41 40 40 39 36 33 30 26 24
94 100 100 100 100 100 100 100 100 100 100 100 100 100 95 78 61 48 39 35 34 34 38 44 48 48 50 51 51 56 61 63 61 55 49 42 36 40 50 52 49 44 41 39 38 39 39 39 38 35 32 29 26 27
100 100 100 100 100 100 100 100 100 97 90 80 68 55 43 36 34 34 35 39 46 48 50 50 53 56 58 56 52 48 41 39 40 42 42 47 56 57 52 47 44 41 40 39 39 37 36 35 32 29 27 28 27 29
99 99 98 97 96 96 94 89 82 66 51 40 36 33 34 39 39 42 46 52 58 61 60 52 44 40 38 37 38 36 36 45 46 45 47 48 47 41 36 32 31 29 28 26 25 24 23 22 22 21 23 26 28 32
63 62 60 57 58 57 52 48 45 42 40 38 36 34 35 40 45 49 48 46 45 40 36 35 41 54 61 63 64 63 58 52 45 39 32 28 26 26 25 23 21 19 18 17 17 17 18 20 22 24 25 28 36 50
51 46 45 43 41 39 37 35 33 32 32 38 41 50 50 46 42 40 44 45 48 54 59 62 60 52 40 31 28 27 26 26 26 27 27 25 22 21 20 20 21 21 19 17 17 18 20 23 27 33 35 40 56 83
35 35 33 34 37 42 45 45 44 43 41 40 39 41 44 50 56 58 52 50 47 42 39 36 33 29 25 24 24 25 26 26 24 23 22 22 24 24 23 22 23 23 23 23 19 14 11 12 16 28 59 94 100 100

GFSWCAN_500_rhum_015.txt.gz
RH
62 43 29 30 71 100 100 100 98 86 98 31 16 13 10 8 8 8 9 8 9 10 10 9 10 11 10 10 9 8 8 7 6 5 5 5 6 7 9 12 24 31 27 24 24 24 18 23 22 24 24 24 25 26
57 42 100 83 100 99 100 100 98 93 99 94 26 15 12 9 8 8 8 8 7 7 8 8 9 11 11 10 9 9 8 8 6 5 4 4 5 6 10 13 26 34 50 44 37 30 27 26 24 23 23 24 27 26
80 78 100 100 99 99 100 100 100 100 95 67 85 80 43 13 9 8 8 8 7 7 7 7 8 8 8 7 6 7 8 8 6 5 5 6 7 11 15 16 23 36 50 43 41 40 36 30 29 27 27 30 29 27
89 86 100 100 88 100 100 100 100 100 100 86 66 46 42 42 22 15 10 8 7 7 7 7 7 6 6 6 6 6 7 7 6 6 7 8 12 16 18 19 20 34 46 48 36 42 38 35 35 37 32 28 28 36
100 99 100 100 98 100 100 99 99 100 99 88 76 66 58 50 42 34 27 16 10 9 7 7 6 6 6 6 6 6 6 7 9 10 13 18 16 17 12 12 16 38 59 54 44 44 34 33 35 34 37 41 41 43
100 100 100 100 100 100 100 100 100 100 100 100 98 87 78 65 56 48 39 33 29 27 22 19 19 18 19 20 21 22 23 23 21 19 18 17 23 23 13 14 28 54 50 46 36 40 38 38 46 52 50 47 42 45
100 100 100 100 98 91 99 100 100 96 92 90 92 97 96 87 78 72 69 66 60 50 43 41 37 32 26 26 28 30 31 31 30 29 27 28 33 33 24 24 74 83 75 70 62 59 55 65 58 48 42 59 75 71
100 97 97 98 82 46 42 43 46 51 48 54 58 60 64 64 64 55 52 51 44 39 37 31 32 41 44 43 41 41 39 36 33 36 37 47 37 42 30 68 73 69 62 62 70 63 59 48 37 46 83 78 77 76
100 100 100 100 98 84 54 41 34 32 30 29 30 31 29 27 27 34 38 38 34 31 24 21 26 33 37 41 45 48 47 43 39 35 48 48 37 32 54 55 55 58 51 42 36 34 49 66 64 68 89 96 97 97
100 100 100 100 100 100 99 82 80 91 95 90 80 56 35 33 35 31 31 31 30 26 19 17 20 20 28 29 29 31 33 30 25 26 30 24 22 27 34 35 57 78 82 70 68 82 80 80 87 96 100 100 100 94
98 99 100 100 100 100 100 100 95 94 88 85 85 78 58 42 41 42 52 57 51 42 33 26 24 25 26 31 55 81 75 59 46 42 49 54 51 61 70 80 82 81 84 86 88 84 80 82 95 98 98 93 99 100
93 91 91 97 100 100 100 100 98 100 93 63 49 49 45 42 39 44 44 42 36 28 29 49 46 39 52 79 97 88 81 70 63 66 70 54 50 62 73 73 75 76 82 86 85 84 84 95 96 84 97 100 100 100
98 96 95 89 94 98 99 98 100 100 98 72 73 79 81 71 58 54 45 42 55 74 81 92 98 100 100 100 100 99 98 92 86 78 68 58 61 66 69 72 72 72 71 69 70 69 68 80 99 100 100 100 100 100
100 100 96 98 99 88 86 87 86 94 100 100 100 100 100 83 75 70 75 80 78 81 85 90 100 99 100 100 100 99 100 99 92 79 67 68 73 74 70 70 71 69 70 71 73 79 96 100 100 100 100 100 100 100
98 94 100 100 92 92 96 94 96 96 96 98 100 100 89 87 84 82 81 82 80 83 86 88 92 90 87 88 86 88 92 88 83 79 79 76 73 85 87 83 77 73 76 88 100 100 100 100 100 100 100 100 100 100
37 50 60 83 93 82 86 95 87 100 97 100 98 98 96 98 100 100 98 96 95 95 90 88 89 88 86 83 75 73 78 75 86 95 97 92 86 85 95 98 99 99 97 99 98 98 100 100 100 100 100 100 98 96
8 5 6 9 18 29 39 38 31 50 84 91 96 100 100 98 98 100 100 100 97 94 94 94 91 96 97 98 99 100 100 100 100 100 100 100 100 100 100 100 100 100 100 100 100 100 100 100 100 100 93 88 77 55
7 6 6 5 4 4 4 4 4 5 6 8 12 16 13 15 24 38 46 50 59 70 76 76 78 90 97 97 97 95 96 97 99 100 100 100 100 100 100 100 100 100 100 100 100 96 87 73 52 34 24 23 26 33
9 8 8 7 7 7 6 6 6 5 5 5 5 5 5 5 5 6 6 6 6 7 7 9 12 13 12 13 12 11 9 9 20 32 72 96 100 98 93 81 72 60 39 31 26 22 17 16 16 16 20 31 36 40
15 13 12 10 8 8 8 9 8 8 8 8 8 8 8 8 8 8 8 8 7 7 7 7 7 7 8 8 9 10 10 10 12 15 21 27 31 48 54 47 35 30 27 22 17 14 14 15 20 31 46 50 47 44
14 14 13 12 12 12 12 12 11 10 10 10 10 10 10 10 10 10 10 10 9 8 9 9 9 9 9 9 9 11 16 28 42 53 58 58 58 47 37 35 28 20 19 16 15 16 19 26 38 52 58 60 58 55
16 14 12 12 12 11 12 12 13 13 13 14 14 14 13 13 13 13 13 12 11 10 10 10 10 10 11 15 29 46 60 70 73 73 57 45 43 43 33 21 18 18 18 20 23 25 27 32 39 45 47 48 45 43
18 18 18 16 14 13 12 12 12 12 11 11 11 11 11 11 12 12 11 11 11 11 11 11 11 14 43 75 80 81 87 88 77 61 52 54 55 42 25 19 18 19 23 28 31 36 41 46 50 51 50 49 47 45
18 16 15 15 14 13 13 12 12 12 11 11 10 10 11 12 13 13 12 12 14 18 20 22 37 84 100 100 100 95 86 70 62 68 77 67 35 19 19 19 23 29 32 36 41 43 46 47 46 40 35 35 39 40
13 12 12 12 11 10 10 10 10 9 9 10 10 10 11 17 16 15 15 25 46 61 81 98 97 99 100 100 90 74 74 76 72 56 32 22 20 19 22 26 30 34 35 34 33 34 38 42 45 46 48 46 43 41
15 20 21 20 23 24 28 24 18 14 16 24 32 22 22 44 94 90 74 100 100 100 100 100 94 80 73 76 85 86 77 51 30 19 20 20 22 26 32 36 38 37 36 42 48 49 48 46 42 35 29 27 26 25
61 79 90 96 98 97 100 100 100 100 100 100 100 98 100 100 100 100 100 100 100 100 100 96 92 92 98 96 83 62 38 29 25 24 25 31 34 34 35 35 39 46 47 40 30 25 23 22 22 22 21 20 19 18
84 92 84 99 74 64 76 86 94 97 96 97 100 100 100 99 98 100 100 100 100 100 100 88 83 84 75 59 44 35 29 28 31 35 38 38 38 40 44 44 38 32 25 21 20 21 21 20 19 18 17 17 16 15
70 68 72 76 85 88 84 89 85 95 99 100 100 100 100 100 100 100 100 100 100 100 96 82 74 63 54 42 35 36 38 39 41 40 40 42 43 42 39 34 26 21 21 21 21 21 20 20 21 19 17 16 17 17
61 55 50 56 70 85 93 96 98 100 100 100 100 100 100 100 100 99 95 89 81 71 58 48 42 38 37 36 38 39 40 42 45 46 47 47 46 38 27 22 21 21 22 23 21 22 22 21 20 20 19 18 18 19
56 55 57 60 63 62 65 63 60 59 58 57 55 52 49 47 45 43 42 40 39 38 37 36 37 38 40 42 44 45 46 46 49 49 45 37 27 22 21 22 24 24 22 20 19 19 22 22 21 20 20 19 22 23
56 56 55 54 52 49 47 44 41 39 36 34 33 33 34 34 34 34 35 36 38 40 42 44 45 46 46 47 48 48 47 45 39 31 24 19 18 23 26 26 24 22 19 18 22 22 22 22 22 22 22 22 26 27
41 36 36 40 44 45 42 39 38 40 44 47 47 48 49 49 48 50 48 47 53 58 59 58 56 54 51 46 40 35 31 26 19 17 18 22 28 28 26 25 20 18 21 23 23 23 26 29 29 28 26 26 33 34